Wrigley Harbour mile 0 to Axe Point mile 91: Past 24 Hour Conditions

 

Stony Rapids Airport

09:00 AM CST 20 September 2014
This table is a summary of hourly weather conditions for the past 24 hours.
Date / Time
(CST)
Wind(knots) Conditions Visibility(km) Pressure(kPa) Air tempC) Relative humidity(%) Dew pointC)
20 September 2014
9:00 ENE 4 Cloudy 16 100.7 6 75 2
8:00 NE 6 Mostly Cloudy 16 100.7 5 80 2
7:00 ENE 5 Mostly Cloudy 16 100.5 4 82 2
6:00 NE 4 Mostly Cloudy 16 100.5 5 80 2
5:00 ENE 6 Cloudy 16 100.4 6 76 2
4:00 ENE 9 Mostly Cloudy 16 100.3 6 76 2
3:00 E 10 Cloudy 16 100.2 7 74 3
2:00 E 9 gust 16 Cloudy 16 100.2 8 72 3
1:00 E 10 gust 15 Cloudy 16 100.2 8 71 3
0:00 E 7 gust 15 Cloudy 16 100.1 8 70 3
19 September 2014
23:00 E 8 gust 15 Cloudy 16 100.1 9 68 3
22:00 E 9 gust 17 Cloudy 16 100.1 9 67 3
21:00 E 10 gust 15 Cloudy 16 100.1 10 62 3
20:00 E 11 gust 16 Cloudy 16 100.1 10 60 3
19:00 E 10 gust 15 Cloudy 16 100.1 11 58 3
18:00 E 8 Cloudy 16 100.1 11 57 3
17:00 E 8 Cloudy 16 100.2 11 57 3
16:00 E 11 Cloudy 16 100.2 11 57 3
15:00 ENE 7 Cloudy 16 100.2 10 60 3
14:00 E 9 Mostly Cloudy 16 100.3 10 60 2
13:00 E 7 gust 15 Sunny 16 100.3 10 58 2
12:00 ESE 9 gust 15 Mainly Sunny 16 100.4 8 65 2
11:00 E 12 Cloudy 16 100.4 8 68 2
10:00 E 6 Cloudy 16 100.4 7 70 2
9:00 E 5 Cloudy 16 100.4 7 72 2
 
Map of Mackenzie - Mackenzie River marine weather areas Great Slave Lake - 45141 Great Slave Lake North Arm - 45150 Herschel Island Komakuk Beach Shingle Point Airport Aklavik Airport Cape Parry Airport Fort Good Hope Airport Tulita Airport Fort Providence Fort Reliance Fort Resolution Airport Fort Simpson Airport Hay River/Merlyn Carter Airport Inner Whaleback Rocks Inuvik Airport Keats Point Norman Wells Airport Paulatuk Airport Pelly Island Tuktoyaktuk Airport Wrigley Airport Yellowknife Airport Kugluktuk Airport Hat Island Cambridge Bay Airport Cape Peel West Stefansson Island Ulukhaktok Airport Sachs Harbour Airport Thomsen River Egg Island Fort Chipewyan Airport Stony Rapids Airport Liverpool Bay Little Chicago Lutselke Airport Storm Hills Croker River Prairie River Uranium City Bathurst Inlet Gateshead Island
Legend: buoyBuoy land stationLand Station